Вернуться в каталог

OPS 8314 (2)

АктивенВоенныеPO
NORAD 6822·PAYLOAD·🇺🇸 United States

Запущен Oct 10, 1972 с Vandenberg Space Force Base

Loading…

Ближайшие Пролёты (ближайшие 24 часа)

TLE

СвежийSource: Space-Track

Эпоха: Sep 14, 2026, 11:08 UTC

1 06822U 72079C   26257.46441356 -.00000024  00000-0 -67695-4 0  9993
2 06822  95.6362  69.6570 0028542 255.0973 118.5092 12.55632515470918

Отслеживайте OPS 8314 (2) в реальном времени с AllMySat

Download on the App Store